Location: Newark
(44.5425°N, 10.7801°E)
Time: 13:38:31
(UTC+00:00)

N. Korean satellite - Pass Details

Date: 25 January 2020
Orbit: 456 x 505 km, 97.2° (Epoch: 24 February)

Event Time Altitude Azimuth Distance (km) Brightness Sun altitude
Rises 04:09:32 0° 30° (NNE) 2,539 10.6 -27.3°
Reaches altitude 10° 04:12:13 10° 52° (NE) 1,665 9.9 -26.8°
Maximum altitude 04:14:31 16° 93° (E) 1,331 9.6 -26.4°
Drops below altitude 10° 04:16:50 10° 133° (SE) 1,674 9.9 -26.0°
Sets 04:19:32 0° 155° (SSE) 2,559 10.6 -25.5°
